Tracking 32964 objects as of 20-Jan-2026
HD Live streaming from Space Station
objects crossing your sky now

CZ-2C DEB

Track CZ-2C DEB now!
10-day predictions


NORAD ID: 40263
Int'l Code: 2014-059C
Perigee: 572.6 km
Apogee: 654.6 km
Inclination: 98.2 °
Period: 96.8 minutes
Semi major axis: 6984 km
RCS: Unknown
Launch date: September 28, 2014
Source: People's Republic of China (PRC)
Launch site: Jiuquan Satellite Launch Center, China (JSC)

Note: This is SATELLITE DEBRIS
Your satellite tracking list
Your tracking list is empty




NASA's NSSDC Master Catalog

Two Line Element Set (TLE):
1 40263U 14059C   26020.27065900  .00028314  00000-0  30386-2 0  9993
2 40263  98.1895 128.3920 0058748  46.1077 314.4967 14.87272059601050
Source of the keplerian elements: AFSPC